[Date Prev][Date Next][Thread Prev][Thread Next] - [Date Index][Thread Index][Author Index]

2 Line ISS Keps 3-13



ISS
1 25544U 98067A   03072.34055881  .00025510  00000-0  32836-3 0  7745
2 25544  51.6300 141.6134 0009533 318.1416 130.2172 15.58834610246055


----
Via the sarex mailing list at AMSAT.ORG courtesy of AMSAT-NA.
To unsubscribe, send "unsubscribe sarex" to Majordomo@amsat.org



AMSAT Top AMSAT Home